Precipitable_Water
0.40 0.40 0.40 0.40 0.42 0.42 0.42 0.42 0.42 0.42 0.42 0.40 0.40 0.40 0.40 0.40 0.38 0.40 0.40 0.40 0.40 0.42 0.42 0.42 0.42 0.42 0.42 0.44 0.44 0.44 0.44 0.44 0.44 0.44 0.44 0.44 0.44 0.46 0.46 0.46 0.46 0.46 0.46 0.46 0.46 0.46 0.46 0.46 0.46 0.46 0.46 0.46 0.46 0.46 0.46 0.46 0.46 0.46 0.46 0.44 0.44 0.44 0.44 0.44 0.44 0.44 0.44 0.42 0.42
0.40 0.40 0.40 0.42 0.42 0.42 0.42 0.42 0.42 0.42 0.42 0.42 0.40 0.40 0.40 0.40 0.40 0.40 0.40 0.40 0.42 0.42 0.42 0.44 0.44 0.44 0.44 0.44 0.44 0.44 0.44 0.44 0.44 0.44 0.44 0.44 0.46 0.46 0.46 0.46 0.46 0.46 0.46 0.46 0.46 0.46 0.46 0.46 0.46 0.46 0.46 0.46 0.46 0.46 0.46 0.46 0.46 0.46 0.46 0.46 0.46 0.46 0.46 0.44 0.44 0.44 0.44 0.44 0.44
0.40 0.40 0.42 0.42 0.42 0.42 0.42 0.42 0.44 0.42 0.42 0.42 0.42 0.42 0.42 0.40 0.40 0.40 0.42 0.42 0.42 0.44 0.44 0.44 0.44 0.44 0.44 0.44 0.44 0.46 0.46 0.46 0.46 0.44 0.44 0.44 0.46 0.46 0.46 0.46 0.46 0.46 0.48 0.46 0.46 0.46 0.46 0.46 0.46 0.46 0.46 0.46 0.46 0.46 0.46 0.48 0.48 0.46 0.46 0.46 0.46 0.46 0.46 0.46 0.46 0.46 0.46 0.46 0.44
0.40 0.40 0.40 0.42 0.42 0.42 0.42 0.42 0.44 0.44 0.42 0.42 0.42 0.42 0.42 0.42 0.42 0.42 0.42 0.44 0.44 0.44 0.44 0.44 0.44 0.44 0.44 0.44 0.44 0.46 0.46 0.46 0.46 0.46 0.46 0.44 0.46 0.46 0.46 0.46 0.46 0.46 0.46 0.48 0.48 0.46 0.46 0.46 0.46 0.46 0.46 0.46 0.46 0.46 0.46 0.46 0.48 0.48 0.48 0.48 0.48 0.48 0.48 0.48 0.48 0.48 0.46 0.46 0.46
0.40 0.40 0.40 0.42 0.42 0.42 0.44 0.44 0.44 0.44 0.44 0.44 0.44 0.44 0.44 0.44 0.44 0.44 0.44 0.44 0.44 0.44 0.44 0.46 0.46 0.46 0.46 0.46 0.46 0.46 0.46 0.46 0.46 0.46 0.46 0.46 0.46 0.46 0.46 0.46 0.46 0.46 0.48 0.48 0.48 0.48 0.48 0.46 0.46 0.46 0.46 0.46 0.46 0.46 0.46 0.48 0.48 0.48 0.48 0.50 0.50 0.50 0.48 0.48 0.48 0.48 0.48 0.48 0.48
0.40 0.40 0.42 0.42 0.42 0.44 0.44 0.46 0.46 0.46 0.46 0.46 0.44 0.44 0.44 0.44 0.44 0.44 0.44 0.44 0.44 0.44 0.46 0.46 0.46 0.46 0.46 0.46 0.46 0.46 0.46 0.46 0.46 0.46 0.46 0.46 0.46 0.46 0.48 0.48 0.48 0.48 0.48 0.48 0.48 0.48 0.48 0.48 0.46 0.46 0.46 0.46 0.48 0.48 0.48 0.48 0.48 0.48 0.48 0.50 0.50 0.50 0.50 0.50 0.50 0.50 0.48 0.48 0.48
0.40 0.40 0.42 0.42 0.44 0.44 0.46 0.46 0.46 0.46 0.46 0.46 0.46 0.44 0.44 0.44 0.44 0.44 0.44 0.44 0.46 0.46 0.46 0.48 0.46 0.46 0.46 0.46 0.46 0.46 0.46 0.46 0.48 0.48 0.48 0.46 0.46 0.46 0.48 0.48 0.48 0.48 0.48 0.48 0.48 0.48 0.48 0.48 0.46 0.46 0.46 0.48 0.48 0.48 0.48 0.50 0.48 0.48 0.48 0.48 0.50 0.50 0.50 0.50 0.50 0.50 0.48 0.48 0.46
0.42 0.42 0.42 0.42 0.44 0.46 0.46 0.46 0.48 0.48 0.46 0.46 0.46 0.46 0.44 0.44 0.44 0.44 0.46 0.46 0.46 0.46 0.48 0.48 0.48 0.48 0.48 0.48 0.46 0.46 0.46 0.46 0.48 0.48 0.48 0.48 0.48 0.48 0.48 0.48 0.48 0.48 0.48 0.48 0.48 0.48 0.48 0.48 0.46 0.46 0.46 0.48 0.48 0.48 0.50 0.50 0.50 0.50 0.48 0.50 0.50 0.50 0.52 0.50 0.52 0.50 0.50 0.48 0.46
0.42 0.42 0.44 0.44 0.44 0.46 0.46 0.48 0.48 0.48 0.46 0.46 0.46 0.46 0.46 0.46 0.46 0.46 0.46 0.46 0.48 0.48 0.48 0.48 0.50 0.48 0.48 0.48 0.48 0.48 0.48 0.48 0.48 0.48 0.48 0.48 0.48 0.48 0.48 0.48 0.48 0.48 0.48 0.48 0.50 0.48 0.48 0.48 0.48 0.48 0.48 0.48 0.48 0.48 0.50 0.50 0.50 0.50 0.50 0.50 0.50 0.50 0.52 0.52 0.52 0.50 0.50 0.48 0.46
0.42 0.42 0.44 0.44 0.46 0.48 0.48 0.48 0.48 0.48 0.48 0.46 0.48 0.48 0.48 0.48 0.48 0.48 0.48 0.50 0.50 0.50 0.50 0.50 0.50 0.50 0.50 0.50 0.48 0.48 0.48 0.48 0.48 0.48 0.48 0.48 0.48 0.48 0.48 0.48 0.48 0.48 0.48 0.48 0.50 0.50 0.48 0.48 0.48 0.48 0.48 0.48 0.48 0.48 0.50 0.50 0.50 0.50 0.50 0.50 0.50 0.50 0.52 0.52 0.52 0.50 0.50 0.48 0.48
0.42 0.44 0.44 0.46 0.46 0.48 0.48 0.48 0.48 0.48 0.48 0.48 0.48 0.48 0.50 0.50 0.50 0.50 0.50 0.50 0.50 0.50 0.50 0.50 0.50 0.50 0.50 0.50 0.50 0.50 0.50 0.50 0.50 0.50 0.50 0.50 0.50 0.50 0.48 0.48 0.48 0.48 0.48 0.50 0.50 0.50 0.50 0.48 0.48 0.48 0.48 0.48 0.48 0.48 0.50 0.50 0.50 0.50 0.50 0.52 0.52 0.52 0.52 0.52 0.52 0.50 0.50 0.48 0.48
0.44 0.44 0.46 0.46 0.48 0.48 0.48 0.48 0.48 0.48 0.48 0.48 0.48 0.48 0.50 0.50 0.50 0.50 0.50 0.50 0.50 0.50 0.50 0.50 0.50 0.50 0.50 0.50 0.52 0.52 0.52 0.52 0.50 0.50 0.50 0.50 0.50 0.50 0.50 0.50 0.50 0.50 0.50 0.50 0.50 0.50 0.50 0.48 0.48 0.48 0.48 0.48 0.48 0.50 0.50 0.50 0.50 0.50 0.52 0.52 0.52 0.52 0.52 0.52 0.52 0.50 0.50 0.48 0.48
0.44 0.46 0.46 0.46 0.48 0.48 0.48 0.48 0.48 0.48 0.48 0.48 0.48 0.50 0.50 0.50 0.50 0.50 0.50 0.50 0.50 0.50 0.52 0.52 0.52 0.52 0.52 0.52 0.52 0.52 0.52 0.52 0.52 0.52 0.52 0.50 0.50 0.50 0.50 0.50 0.50 0.50 0.50 0.52 0.52 0.52 0.50 0.50 0.48 0.48 0.48 0.48 0.48 0.50 0.50 0.50 0.50 0.52 0.52 0.52 0.52 0.52 0.52 0.52 0.52 0.52 0.50 0.48 0.46
0.44 0.46 0.46 0.48 0.48 0.48 0.48 0.48 0.48 0.48 0.50 0.48 0.50 0.50 0.50 0.50 0.50 0.50 0.50 0.50 0.50 0.50 0.52 0.52 0.52 0.52 0.52 0.52 0.52 0.52 0.52 0.54 0.52 0.52 0.52 0.52 0.52 0.52 0.52 0.52 0.50 0.50 0.52 0.52 0.52 0.52 0.50 0.50 0.50 0.48 0.48 0.48 0.48 0.48 0.50 0.50 0.50 0.52 0.52 0.52 0.52 0.52 0.52 0.52 0.52 0.52 0.50 0.48 0.46
0.46 0.46 0.46 0.48 0.48 0.48 0.48 0.48 0.48 0.48 0.50 0.50 0.50 0.50 0.50 0.50 0.52 0.52 0.52 0.50 0.50 0.52 0.52 0.52 0.52 0.54 0.54 0.54 0.54 0.54 0.54 0.54 0.54 0.52 0.52 0.52 0.52 0.52 0.52 0.52 0.52 0.52 0.52 0.52 0.52 0.52 0.52 0.52 0.50 0.50 0.50 0.48 0.48 0.48 0.50 0.50 0.50 0.52 0.52 0.52 0.52 0.52 0.52 0.52 0.52 0.52 0.50 0.48 0.46
0.46 0.46 0.46 0.48 0.48 0.48 0.48 0.48 0.48 0.48 0.50 0.50 0.50 0.50 0.52 0.52 0.52 0.52 0.52 0.52 0.52 0.52 0.52 0.52 0.52 0.54 0.54 0.54 0.54 0.54 0.54 0.54 0.54 0.54 0.52 0.52 0.52 0.52 0.52 0.52 0.52 0.52 0.52 0.52 0.52 0.52 0.52 0.52 0.52 0.52 0.50 0.50 0.48 0.50 0.50 0.50 0.50 0.52 0.52 0.52 0.54 0.52 0.52 0.52 0.52 0.50 0.50 0.48 0.48
0.46 0.46 0.46 0.46 0.46 0.46 0.48 0.48 0.48 0.48 0.50 0.50 0.50 0.52 0.52 0.52 0.52 0.52 0.52 0.52 0.52 0.52 0.52 0.52 0.52 0.54 0.54 0.56 0.56 0.54 0.54 0.54 0.54 0.54 0.54 0.52 0.52 0.52 0.52 0.52 0.52 0.52 0.52 0.52 0.52 0.54 0.54 0.54 0.54 0.52 0.52 0.50 0.50 0.50 0.50 0.50 0.52 0.52 0.52 0.52 0.54 0.52 0.52 0.52 0.50 0.50 0.48 0.48 0.48
0.46 0.46 0.46 0.46 0.46 0.46 0.46 0.48 0.48 0.48 0.50 0.50 0.52 0.52 0.52 0.52 0.52 0.54 0.54 0.54 0.52 0.52 0.52 0.52 0.54 0.54 0.54 0.54 0.56 0.56 0.54 0.54 0.54 0.54 0.54 0.54 0.54 0.54 0.54 0.52 0.52 0.54 0.54 0.54 0.54 0.54 0.54 0.54 0.54 0.54 0.54 0.52 0.52 0.52 0.52 0.52 0.52 0.52 0.52 0.52 0.52 0.52 0.52 0.52 0.50 0.48 0.48 0.46 0.46
0.46 0.46 0.46 0.46 0.46 0.46 0.48 0.48 0.48 0.48 0.50 0.50 0.52 0.52 0.52 0.54 0.54 0.54 0.54 0.54 0.54 0.54 0.52 0.52 0.54 0.54 0.54 0.54 0.56 0.56 0.56 0.54 0.54 0.54 0.54 0.54 0.54 0.54 0.54 0.54 0.54 0.54 0.54 0.54 0.54 0.54 0.54 0.54 0.54 0.54 0.54 0.54 0.54 0.54 0.54 0.54 0.54 0.54 0.52 0.52 0.52 0.52 0.52 0.50 0.48 0.48 0.46 0.46 0.44
0.46 0.46 0.46 0.46 0.46 0.48 0.48 0.48 0.48 0.50 0.50 0.52 0.52 0.52 0.52 0.54 0.54 0.54 0.54 0.54 0.54 0.54 0.54 0.54 0.54 0.54 0.54 0.54 0.56 0.56 0.56 0.56 0.56 0.56 0.56 0.56 0.56 0.56 0.54 0.54 0.54 0.56 0.56 0.56 0.56 0.56 0.56 0.56 0.56 0.56 0.54 0.54 0.54 0.54 0.54 0.54 0.54 0.54 0.52 0.52 0.52 0.50 0.50 0.48 0.48 0.46 0.46 0.44 0.44
0.48 0.48 0.48 0.48 0.48 0.48 0.48 0.50 0.50 0.50 0.52 0.52 0.52 0.52 0.52 0.54 0.54 0.54 0.54 0.54 0.56 0.56 0.54 0.54 0.54 0.54 0.54 0.54 0.56 0.56 0.56 0.56 0.56 0.56 0.56 0.56 0.56 0.56 0.56 0.56 0.56 0.56 0.56 0.56 0.56 0.56 0.56 0.56 0.56 0.56 0.56 0.54 0.54 0.54 0.54 0.54 0.52 0.52 0.52 0.50 0.50 0.50 0.48 0.46 0.46 0.46 0.44 0.44 0.44
0.48 0.48 0.48 0.50 0.50 0.50 0.50 0.50 0.50 0.52 0.52 0.52 0.52 0.52 0.54 0.54 0.54 0.54 0.56 0.56 0.56 0.56 0.56 0.56 0.56 0.56 0.56 0.56 0.56 0.56 0.56 0.58 0.58 0.58 0.58 0.58 0.58 0.58 0.58 0.56 0.56 0.56 0.56 0.56 0.56 0.56 0.58 0.58 0.58 0.56 0.56 0.54 0.54 0.54 0.52 0.52 0.52 0.50 0.50 0.48 0.48 0.48 0.46 0.46 0.46 0.46 0.44 0.44 0.44
0.50 0.50 0.50 0.50 0.50 0.52 0.52 0.52 0.52 0.52 0.52 0.52 0.54 0.54 0.54 0.54 0.54 0.56 0.56 0.58 0.56 0.56 0.56 0.56 0.56 0.56 0.56 0.56 0.56 0.56 0.58 0.58 0.58 0.58 0.58 0.58 0.58 0.58 0.58 0.58 0.56 0.56 0.56 0.56 0.58 0.58 0.58 0.58 0.58 0.56 0.54 0.54 0.52 0.52 0.52 0.50 0.50 0.48 0.48 0.46 0.46 0.46 0.46 0.46 0.46 0.44 0.44 0.44 0.44
0.52 0.52 0.52 0.52 0.52 0.52 0.52 0.52 0.52 0.52 0.54 0.54 0.54 0.54 0.54 0.54 0.56 0.56 0.56 0.58 0.58 0.58 0.58 0.58 0.58 0.58 0.58 0.58 0.58 0.58 0.58 0.58 0.58 0.58 0.58 0.58 0.58 0.58 0.58 0.58 0.58 0.58 0.58 0.58 0.58 0.58 0.58 0.58 0.58 0.56 0.54 0.52 0.52 0.50 0.50 0.50 0.48 0.48 0.46 0.46 0.44 0.44 0.44 0.44 0.44 0.44 0.44 0.44 0.44
0.52 0.54 0.54 0.54 0.54 0.52 0.52 0.52 0.52 0.52 0.54 0.54 0.54 0.54 0.56 0.56 0.56 0.56 0.58 0.58 0.58 0.58 0.58 0.58 0.58 0.58 0.60 0.60 0.60 0.60 0.60 0.58 0.58 0.58 0.58 0.58 0.58 0.58 0.58 0.58 0.58 0.58 0.58 0.58 0.58 0.58 0.58 0.58 0.56 0.56 0.54 0.52 0.52 0.50 0.50 0.48 0.48 0.46 0.46 0.46 0.44 0.44 0.44 0.44 0.44 0.44 0.44 0.44 0.44
0.54 0.54 0.54 0.54 0.54 0.54 0.54 0.54 0.54 0.54 0.54 0.54 0.56 0.56 0.56 0.56 0.56 0.58 0.58 0.58 0.58 0.58 0.60 0.60 0.60 0.60 0.60 0.60 0.60 0.60 0.60 0.60 0.60 0.58 0.58 0.58 0.58 0.58 0.58 0.58 0.58 0.58 0.58 0.60 0.60 0.58 0.58 0.58 0.56 0.56 0.54 0.52 0.50 0.48 0.48 0.48 0.48 0.46 0.46 0.44 0.44 0.44 0.44 0.42 0.44 0.44 0.44 0.44 0.44
0.54 0.54 0.54 0.54 0.54 0.54 0.54 0.54 0.54 0.54 0.54 0.54 0.56 0.56 0.56 0.56 0.58 0.58 0.58 0.58 0.58 0.60 0.60 0.60 0.60 0.60 0.60 0.60 0.60 0.60 0.60 0.60 0.60 0.60 0.58 0.58 0.58 0.58 0.58 0.58 0.58 0.58 0.60 0.60 0.58 0.58 0.58 0.56 0.56 0.54 0.54 0.52 0.50 0.48 0.48 0.48 0.46 0.46 0.46 0.44 0.44 0.44 0.44 0.42 0.42 0.42 0.42 0.42 0.42
0.54 0.54 0.56 0.56 0.56 0.56 0.56 0.56 0.56 0.56 0.56 0.56 0.56 0.56 0.56 0.58 0.58 0.58 0.58 0.58 0.60 0.60 0.60 0.60 0.60 0.62 0.62 0.60 0.60 0.60 0.60 0.60 0.60 0.60 0.60 0.60 0.58 0.58 0.58 0.58 0.58 0.58 0.60 0.60 0.58 0.58 0.56 0.56 0.54 0.54 0.52 0.52 0.50 0.48 0.48 0.48 0.46 0.46 0.46 0.44 0.44 0.44 0.44 0.42 0.42 0.42 0.42 0.42 0.42
0.54 0.56 0.56 0.56 0.56 0.56 0.56 0.56 0.56 0.56 0.56 0.56 0.56 0.56 0.58 0.58 0.58 0.58 0.58 0.58 0.60 0.60 0.60 0.60 0.60 0.60 0.60 0.60 0.60 0.60 0.60 0.60 0.60 0.60 0.60 0.60 0.58 0.58 0.58 0.58 0.58 0.58 0.58 0.58 0.58 0.56 0.56 0.54 0.54 0.52 0.52 0.50 0.50 0.50 0.48 0.48 0.46 0.46 0.46 0.44 0.44 0.44 0.44 0.42 0.42 0.42 0.42 0.42 0.44
0.56 0.56 0.56 0.56 0.56 0.56 0.56 0.56 0.56 0.56 0.56 0.58 0.58 0.58 0.58 0.58 0.58 0.58 0.58 0.58 0.58 0.58 0.60 0.60 0.60 0.60 0.60 0.60 0.60 0.60 0.60 0.60 0.60 0.60 0.60 0.58 0.58 0.58 0.58 0.58 0.58 0.58 0.58 0.58 0.56 0.56 0.54 0.52 0.52 0.52 0.50 0.50 0.50 0.50 0.50 0.48 0.48 0.46 0.46 0.44 0.44 0.44 0.44 0.44 0.44 0.44 0.44 0.44 0.44
0.56 0.56 0.56 0.56 0.56 0.56 0.56 0.56 0.56 0.58 0.58 0.58 0.58 0.58 0.56 0.56 0.56 0.56 0.56 0.58 0.58 0.58 0.60 0.60 0.58 0.58 0.58 0.58 0.58 0.58 0.58 0.58 0.58 0.58 0.58 0.58 0.58 0.58 0.58 0.58 0.58 0.56 0.56 0.56 0.56 0.54 0.54 0.52 0.52 0.52 0.52 0.50 0.50 0.50 0.50 0.50 0.48 0.48 0.46 0.44 0.44 0.44 0.44 0.44 0.44 0.44 0.44 0.46 0.44
0.56 0.56 0.56 0.56 0.56 0.56 0.56 0.56 0.58 0.58 0.58 0.56 0.56 0.56 0.56 0.56 0.56 0.56 0.58 0.58 0.58 0.58 0.58 0.58 0.58 0.58 0.58 0.58 0.58 0.58 0.58 0.58 0.58 0.58 0.58 0.58 0.56 0.56 0.56 0.56 0.56 0.56 0.56 0.56 0.56 0.54 0.54 0.52 0.52 0.52 0.52 0.52 0.52 0.52 0.50 0.50 0.48 0.48 0.46 0.46 0.44 0.44 0.44 0.44 0.46 0.46 0.46 0.46 0.46
0.54 0.56 0.56 0.56 0.56 0.56 0.56 0.56 0.56 0.56 0.56 0.56 0.56 0.56 0.56 0.56 0.56 0.56 0.56 0.58 0.58 0.58 0.56 0.56 0.56 0.56 0.56 0.56 0.56 0.56 0.56 0.56 0.58 0.58 0.58 0.56 0.56 0.56 0.54 0.54 0.54 0.56 0.56 0.56 0.54 0.54 0.54 0.52 0.52 0.52 0.52 0.52 0.52 0.52 0.50 0.50 0.48 0.48 0.46 0.46 0.44 0.46 0.46 0.46 0.46 0.46 0.46 0.46 0.46
0.54 0.54 0.54 0.54 0.56 0.56 0.56 0.56 0.56 0.56 0.56 0.56 0.56 0.56 0.56 0.56 0.56 0.56 0.56 0.56 0.56 0.58 0.58 0.58 0.56 0.56 0.56 0.56 0.56 0.56 0.56 0.56 0.56 0.56 0.56 0.56 0.54 0.54 0.54 0.54 0.54 0.54 0.54 0.54 0.52 0.52 0.52 0.52 0.54 0.54 0.52 0.52 0.52 0.52 0.50 0.50 0.48 0.46 0.44 0.44 0.44 0.46 0.46 0.46 0.46 0.46 0.46 0.46 0.46
0.54 0.54 0.54 0.54 0.54 0.56 0.56 0.56 0.56 0.56 0.56 0.56 0.56 0.56 0.56 0.56 0.56 0.56 0.56 0.56 0.58 0.58 0.58 0.58 0.58 0.58 0.58 0.58 0.58 0.56 0.56 0.56 0.56 0.56 0.56 0.54 0.54 0.52 0.52 0.52 0.52 0.52 0.52 0.52 0.52 0.52 0.52 0.52 0.54 0.54 0.52 0.52 0.50 0.50 0.48 0.48 0.46 0.44 0.44 0.44 0.44 0.46 0.46 0.46 0.46 0.46 0.46 0.46 0.46
0.54 0.54 0.54 0.54 0.54 0.54 0.56 0.56 0.56 0.56 0.56 0.56 0.56 0.56 0.56 0.58 0.58 0.58 0.58 0.58 0.58 0.58 0.58 0.58 0.58 0.58 0.58 0.58 0.58 0.56 0.56 0.56 0.54 0.54 0.54 0.52 0.52 0.50 0.50 0.50 0.50 0.52 0.52 0.52 0.52 0.52 0.54 0.54 0.54 0.54 0.52 0.50 0.50 0.48 0.46 0.46 0.44 0.44 0.44 0.44 0.44 0.46 0.46 0.46 0.46 0.46 0.46 0.46 0.46
0.54 0.54 0.54 0.54 0.54 0.54 0.56 0.56 0.56 0.56 0.56 0.56 0.56 0.58 0.58 0.58 0.58 0.58 0.58 0.60 0.58 0.58 0.58 0.58 0.58 0.58 0.58 0.56 0.56 0.56 0.56 0.56 0.54 0.52 0.52 0.50 0.50 0.48 0.48 0.50 0.50 0.52 0.54 0.54 0.54 0.54 0.54 0.54 0.54 0.52 0.52 0.50 0.48 0.46 0.46 0.44 0.44 0.44 0.44 0.44 0.46 0.46 0.46 0.46 0.46 0.46 0.46 0.46 0.46
0.56 0.56 0.56 0.54 0.54 0.54 0.56 0.56 0.56 0.56 0.56 0.56 0.58 0.58 0.58 0.58 0.58 0.58 0.60 0.60 0.60 0.58 0.58 0.58 0.58 0.58 0.58 0.56 0.56 0.56 0.54 0.54 0.52 0.52 0.50 0.50 0.48 0.48 0.48 0.50 0.52 0.54 0.54 0.54 0.54 0.54 0.54 0.54 0.52 0.52 0.50 0.48 0.46 0.46 0.46 0.46 0.44 0.44 0.44 0.44 0.44 0.44 0.44 0.44 0.44 0.44 0.44 0.44 0.44
0.56 0.56 0.56 0.56 0.56 0.56 0.56 0.56 0.56 0.56 0.56 0.58 0.58 0.58 0.58 0.58 0.60 0.60 0.60 0.60 0.60 0.60 0.60 0.58 0.58 0.58 0.58 0.56 0.56 0.54 0.54 0.52 0.52 0.50 0.50 0.50 0.50 0.50 0.50 0.50 0.52 0.54 0.54 0.54 0.52 0.52 0.52 0.52 0.52 0.50 0.48 0.48 0.46 0.46 0.46 0.46 0.44 0.44 0.44 0.44 0.44 0.42 0.42 0.44 0.44 0.42 0.42 0.42 0.42
0.56 0.56 0.56 0.56 0.56 0.56 0.56 0.56 0.56 0.56 0.58 0.58 0.58 0.58 0.58 0.60 0.60 0.60 0.60 0.60 0.60 0.60 0.60 0.58 0.58 0.56 0.56 0.54 0.54 0.52 0.52 0.52 0.52 0.50 0.50 0.50 0.50 0.50 0.52 0.52 0.52 0.52 0.54 0.54 0.52 0.52 0.52 0.52 0.50 0.50 0.48 0.48 0.46 0.46 0.46 0.44 0.44 0.42 0.42 0.42 0.40 0.40 0.40 0.42 0.42 0.40 0.40 0.40 0.40
0.56 0.56 0.56 0.56 0.56 0.56 0.56 0.56 0.56 0.58 0.58 0.58 0.58 0.58 0.60 0.60 0.60 0.60 0.60 0.60 0.60 0.60 0.58 0.58 0.56 0.54 0.54 0.54 0.52 0.52 0.52 0.52 0.52 0.52 0.52 0.52 0.52 0.52 0.52 0.52 0.52 0.52 0.52 0.52 0.52 0.52 0.52 0.50 0.50 0.50 0.48 0.48 0.46 0.46 0.44 0.44 0.42 0.40 0.40 0.40 0.40 0.38 0.38 0.38 0.40 0.38 0.38 0.38 0.38
Wind_Speed
36 35 35 34 34 33 32 32 31 31 30 30 29 29 28 28 28 27 27 26 26 26 25 25 24 24 23 23 23 22 22 21 21 20 20 19 19 18 18 17 17 16 16 15 15 14 14 13 13 12 12 12 12 12 11 11 11 11 11 11 11 11 11 11 11 11 11 11 11
36 36 35 35 34 33 33 32 31 31 31 30 30 30 29 29 28 28 28 27 27 26 25 25 25 24 24 24 23 23 22 22 21 21 21 20 20 19 19 18 17 17 16 16 15 15 15 14 14 13 13 13 13 12 12 12 12 12 12 12 12 12 12 12 12 12 12 12 12
37 36 36 35 35 34 33 33 32 32 31 31 31 30 30 29 29 28 28 28 27 26 26 25 25 25 24 24 24 23 23 22 22 22 21 21 20 20 19 19 18 18 17 17 16 16 15 15 15 14 14 14 13 13 13 13 13 12 13 13 13 13 13 13 13 13 13 13 13
37 37 37 36 36 35 34 33 33 33 32 32 31 31 30 30 29 29 28 28 27 27 26 26 26 25 25 24 24 24 23 23 23 22 22 21 21 20 20 19 19 18 18 17 17 17 16 16 16 15 15 15 14 14 14 14 13 13 13 13 13 13 13 13 14 14 14 14 14
38 38 37 37 36 36 35 34 34 33 33 32 32 31 31 30 30 29 29 28 28 27 27 26 26 25 25 25 24 24 24 24 23 23 22 22 21 21 21 20 20 19 19 18 18 17 17 17 16 16 16 16 15 15 15 14 14 14 14 14 14 14 14 14 14 14 14 14 14
38 38 38 37 37 36 36 35 35 34 34 33 32 32 31 31 30 30 29 29 28 28 27 27 26 26 25 25 25 24 24 24 24 23 23 22 22 21 21 21 20 20 19 19 19 18 18 18 17 17 17 17 16 16 16 15 15 15 15 15 15 15 15 15 15 15 15 15 15
39 38 38 38 37 37 36 36 35 35 34 33 33 32 32 31 31 30 30 29 28 28 27 27 26 26 26 25 25 25 24 24 24 23 23 22 22 22 21 21 21 20 20 20 19 19 19 18 18 18 18 18 17 17 17 16 16 16 16 16 16 16 15 15 16 16 15 15 15
39 39 39 38 38 38 37 37 36 35 35 34 33 33 32 32 31 30 30 29 28 28 27 27 27 26 26 26 25 25 25 24 24 24 23 23 23 22 22 22 21 21 21 20 20 20 19 19 19 19 19 19 18 18 18 17 17 17 17 17 17 17 16 16 16 16 16 16 16
39 39 39 39 39 38 38 37 37 36 35 35 34 33 33 32 31 31 30 29 29 28 28 27 27 27 26 26 26 26 25 25 25 24 24 24 23 23 22 22 22 21 21 21 21 20 20 20 20 20 20 20 19 19 19 18 18 18 18 18 18 17 17 17 17 17 17 17 17
40 39 39 39 39 39 38 38 37 37 36 35 34 34 33 32 32 31 30 30 29 29 28 28 27 27 27 27 26 26 26 25 25 25 24 24 24 23 23 23 22 22 22 22 21 21 21 21 21 21 21 20 20 20 20 19 19 19 19 19 19 18 18 18 18 18 18 18 18
40 40 40 40 39 39 39 38 38 37 36 36 35 34 34 33 32 31 31 30 29 29 29 28 28 28 27 27 27 26 26 26 26 25 25 25 24 24 24 23 23 23 22 22 22 22 21 21 21 21 21 21 21 21 21 20 20 20 20 20 19 19 19 19 19 19 19 19 19
40 40 40 40 40 40 39 39 38 37 37 36 35 35 34 33 33 32 31 30 30 30 29 29 29 28 28 27 27 27 27 26 26 26 25 25 25 24 24 24 23 23 23 23 22 22 22 22 22 22 22 22 22 22 21 21 21 21 21 20 20 20 20 20 20 20 20 20 19
40 40 40 40 40 40 40 39 39 38 37 37 36 35 35 34 33 33 32 31 31 30 30 29 29 29 28 28 28 27 27 27 27 26 26 25 25 25 24 24 24 24 23 23 23 23 23 23 22 22 22 22 23 22 22 22 22 22 21 21 21 21 21 21 21 20 20 20 20
41 41 41 41 41 41 40 40 39 39 38 37 37 36 35 34 34 33 33 32 31 31 30 30 30 29 29 28 28 28 28 27 27 27 26 26 25 25 25 25 24 24 24 24 23 23 23 23 23 23 23 23 23 23 23 23 23 23 22 22 22 22 22 21 21 21 21 21 21
41 41 41 41 41 41 41 40 40 39 38 38 37 36 36 35 34 34 33 33 32 31 31 31 30 30 29 29 29 28 28 28 27 27 27 26 26 26 25 25 25 24 24 24 24 24 24 24 24 24 24 24 24 24 24 24 24 24 23 23 23 23 23 22 22 22 22 22 22
41 41 41 41 41 41 41 41 40 39 39 38 38 37 36 35 35 34 34 33 32 32 32 31 31 30 30 29 29 29 28 28 28 27 27 27 26 26 26 26 25 25 25 25 25 25 25 25 25 24 24 24 24 24 24 24 24 24 24 24 24 24 23 23 23 23 22 22 22
41 41 41 41 42 42 41 41 40 40 39 39 38 37 37 36 35 35 34 34 33 32 32 32 31 31 30 30 30 29 29 29 28 28 28 27 27 27 26 26 26 26 25 25 25 25 25 25 25 25 25 25 25 25 25 25 25 25 25 25 25 24 24 24 24 23 23 23 23
41 41 41 42 42 42 42 41 41 40 40 39 39 38 37 37 36 36 35 34 34 33 33 32 32 31 31 31 30 30 29 29 29 28 28 28 27 27 27 27 26 26 26 26 26 26 26 26 26 26 26 25 25 25 25 25 25 25 25 25 25 25 25 25 24 24 24 24 24
41 41 41 42 42 42 42 41 41 41 40 40 39 39 38 37 37 36 35 35 34 34 33 33 32 32 32 31 31 30 30 30 29 29 28 28 28 28 27 27 27 27 27 27 27 27 27 26 26 26 26 26 26 26 26 26 26 26 26 26 26 26 26 25 25 25 25 25 25
41 41 41 42 42 42 41 41 41 41 40 40 40 39 39 38 37 37 36 36 35 34 34 33 33 32 32 32 31 31 31 30 30 29 29 29 28 28 28 28 27 27 27 27 27 27 27 27 27 27 27 27 27 27 27 26 26 26 26 26 26 26 26 26 26 26 26 26 25
41 41 41 41 41 41 41 41 41 41 41 40 40 40 39 38 38 37 37 36 35 35 34 34 33 33 33 32 32 32 31 31 30 30 30 29 29 29 29 28 28 28 28 28 28 28 28 28 28 28 28 28 27 27 27 27 27 27 27 27 27 27 27 27 27 26 26 26 26
40 40 40 41 41 41 41 41 41 41 41 40 40 40 39 39 38 38 37 36 36 35 35 35 34 34 33 33 33 32 32 31 31 31 31 30 30 30 29 29 29 29 29 29 29 29 29 29 29 29 28 28 28 28 28 28 27 27 27 27 27 27 27 27 27 27 27 27 27
39 39 40 40 40 40 40 40 40 40 40 40 40 40 39 39 38 38 37 37 36 36 35 35 35 34 34 34 33 33 33 32 32 32 31 31 31 31 30 30 30 30 30 30 30 30 30 30 29 29 29 29 29 28 28 28 28 28 28 28 28 28 28 28 28 28 28 28 28
39 39 39 39 39 39 40 40 40 40 40 40 40 39 39 39 38 38 37 37 37 36 36 36 35 35 35 34 34 34 33 33 33 32 32 32 32 31 31 31 31 31 31 31 31 31 31 30 30 30 30 29 29 29 29 29 29 29 28 28 28 28 28 28 28 28 28 28 29
38 38 38 38 39 39 39 39 39 39 39 39 39 39 39 39 38 38 38 38 37 37 36 36 36 35 35 35 35 35 34 34 34 33 33 33 33 32 32 32 32 32 32 32 32 32 31 31 31 31 30 30 30 30 29 29 29 29 29 29 29 29 29 29 29 29 29 29 29
38 38 38 38 38 38 38 38 38 39 39 39 39 39 39 39 39 38 38 38 38 37 37 37 36 36 36 36 36 35 35 35 35 34 34 34 33 33 33 33 33 33 33 32 32 32 32 32 31 31 31 30 30 30 30 30 30 30 30 30 29 29 30 30 30 30 30 30 30
37 37 37 37 37 37 37 37 38 38 38 38 38 38 39 39 39 38 38 38 38 38 37 37 37 37 37 36 36 36 36 36 35 35 35 34 34 34 34 34 34 33 33 33 33 33 32 32 32 32 31 31 31 31 31 30 30 30 30 30 30 30 30 30 30 31 31 31 31
37 37 37 37 36 37 37 37 37 37 37 37 38 38 38 38 38 38 38 38 38 38 38 38 38 37 37 37 37 37 37 36 36 35 35 35 35 35 35 34 34 34 34 34 34 33 33 33 32 32 32 31 31 31 31 31 31 31 31 31 31 31 31 31 31 31 31 32 32
37 37 36 36 36 36 36 36 36 36 37 37 37 37 37 38 38 38 38 38 38 38 38 38 38 38 38 38 37 37 37 36 36 36 36 35 35 35 35 35 35 35 34 34 34 34 33 33 33 32 32 32 32 32 32 31 31 31 31 31 31 31 31 32 32 32 32 32 33
36 36 36 36 36 36 36 36 36 36 36 36 36 36 37 37 37 37 38 38 38 38 38 38 38 38 38 38 38 37 37 37 36 36 36 36 36 36 35 35 35 35 35 35 34 34 34 33 33 33 33 32 32 32 32 32 32 32 32 32 32 32 32 32 33 33 33 34 34
36 36 36 36 36 36 35 36 36 36 36 36 36 36 36 36 37 37 37 37 38 38 38 38 38 38 38 38 38 37 37 37 37 36 36 36 36 36 35 35 35 35 35 34 34 34 34 34 34 33 33 33 33 33 33 33 33 32 32 33 33 33 33 33 33 34 34 35 35
36 36 36 36 36 36 35 35 35 36 36 36 36 36 36 36 36 37 37 37 37 37 37 37 37 37 37 37 37 37 37 37 37 37 36 36 36 36 35 35 35 35 35 34 34 34 34 34 34 34 34 33 33 33 33 33 33 33 33 33 33 33 34 34 34 35 35 36 36
36 36 36 36 36 36 36 36 36 36 36 36 36 36 36 36 36 36 36 37 37 37 37 37 37 37 37 37 37 37 37 37 37 36 36 36 36 35 35 35 35 35 35 34 34 34 34 34 34 34 34 34 34 34 34 34 34 34 34 34 34 34 35 35 35 36 36 37 37
36 36 36 36 36 36 36 36 36 36 36 36 36 36 36 36 36 36 37 37 37 37 37 37 37 37 37 37 37 37 37 37 36 36 36 36 35 35 35 35 35 35 35 35 35 35 35 35 35 35 34 34 34 34 34 34 34 34 34 35 35 35 36 36 37 37 37 38 38
37 36 36 36 36 36 36 36 36 36 36 36 36 36 37 37 37 37 37 37 37 37 37 37 37 37 37 37 37 37 37 36 36 36 36 36 35 35 35 35 35 35 35 35 35 35 35 35 35 35 35 35 35 35 35 35 35 35 35 35 36 36 37 37 38 38 38 38 39
37 37 36 36 36 36 36 36 36 37 37 37 37 37 37 37 37 38 38 38 38 37 37 37 37 37 37 37 37 37 37 37 36 36 36 36 35 35 35 35 35 35 35 35 35 35 35 35 35 35 35 35 35 35 35 35 36 36 36 36 37 37 38 38 39 39 39 39 39
37 37 37 37 37 37 37 37 37 37 37 37 37 37 37 38 38 38 38 38 38 38 38 38 37 37 37 37 37 37 37 37 37 36 36 36 36 36 36 35 35 35 35 35 35 35 35 35 35 35 35 35 36 36 36 36 36 37 37 37 38 38 39 39 39 39 40 40 40
37 37 37 37 37 37 37 37 37 37 37 37 38 38 38 38 38 38 38 38 38 38 38 38 37 37 37 37 37 37 37 37 36 36 36 36 36 36 36 36 36 36 36 35 35 35 35 35 35 35 35 36 36 36 36 37 37 37 38 38 39 39 39 39 40 40 40 40 41
37 37 37 37 37 37 37 37 37 37 37 37 37 37 38 38 38 38 38 38 38 37 37 37 37 37 37 36 36 36 36 36 36 36 36 36 36 36 36 36 36 36 36 35 35 35 35 36 36 36 36 36 36 37 37 37 38 38 38 39 39 39 40 40 40 40 40 41 41
37 37 37 37 37 37 37 37 37 37 37 37 37 37 37 37 37 37 37 37 37 37 37 37 36 36 36 36 35 35 35 35 35 35 35 35 35 35 35 35 36 36 36 36 36 36 36 36 36 36 36 37 37 37 37 38 38 39 39 39 40 40 40 40 40 40 41 41 41
37 37 37 37 37 37 37 37 37 37 37 37 37 37 37 37 36 36 36 36 36 36 36 36 36 35 35 35 35 35 35 35 35 35 35 35 35 35 35 35 35 35 36 36 36 36 36 36 36 37 37 37 37 38 38 38 39 39 40 40 40 40 40 41 41 41 41 41 41
Wind_Direction
219 219 219 219 219 220 220 221 221 221 221 221 221 222 222 223 223 224 225 226 226 227 227 228 229 229 229 228 229 230 231 231 232 233 233 235 236 237 237 238 240 241 243 244 246 247 249 251 254 257 261 263 267 270 272 274 277 280 283 286 288 290 292 293 294 296 297 297 298
219 219 219 219 219 220 220 221 221 221 221 222 222 222 222 223 223 224 225 225 226 227 227 228 228 228 228 228 229 229 230 231 232 232 233 234 235 236 238 239 240 241 243 245 246 248 250 251 254 258 261 263 265 268 271 272 274 278 281 283 285 287 289 291 292 293 294 295 296
219 219 219 219 219 219 220 220 221 221 221 222 222 222 223 223 224 224 225 225 226 227 227 228 228 228 228 229 229 230 231 231 232 233 234 235 236 237 238 239 241 242 244 245 247 249 250 252 254 257 260 262 264 266 268 270 272 275 278 280 283 285 287 289 290 291 293 294 295
219 219 219 219 219 219 219 220 220 220 221 221 222 222 223 223 224 224 225 225 226 227 227 228 228 228 229 229 230 230 231 232 232 233 235 235 236 237 239 240 242 243 245 246 248 249 250 252 254 257 259 261 262 264 266 268 270 273 275 277 280 282 284 286 288 289 291 292 293
219 219 219 219 219 219 219 220 220 220 221 221 222 222 223 223 224 224 225 225 226 226 227 228 228 229 229 230 230 231 232 232 233 234 236 237 238 238 239 241 243 244 246 247 248 250 251 252 255 257 259 260 261 263 264 265 267 270 273 275 277 279 281 283 285 287 289 290 292
219 219 219 219 219 219 219 220 220 220 221 222 222 222 223 224 224 224 224 225 226 226 227 227 228 229 229 230 231 232 233 234 234 235 237 238 239 240 241 242 244 245 246 248 249 250 251 253 256 257 258 259 261 261 261 262 265 267 270 272 274 276 278 280 282 284 286 288 289
219 219 219 219 219 219 219 220 220 221 221 222 222 222 223 224 224 224 225 225 226 227 227 228 229 229 230 231 232 233 234 235 236 237 238 239 240 241 242 244 245 246 247 248 250 251 252 253 256 258 258 259 261 261 261 261 263 265 267 269 271 274 275 277 279 281 283 285 286
219 219 219 219 219 219 219 220 220 221 221 222 222 223 223 223 224 224 225 226 227 227 228 229 229 230 230 231 232 233 234 235 237 238 239 240 241 242 243 245 246 247 248 249 250 252 253 254 257 258 259 260 261 261 261 261 263 264 266 267 270 271 273 275 277 278 279 281 282
219 219 219 219 219 219 219 220 220 221 222 222 223 223 223 223 224 224 225 226 227 228 229 229 230 230 231 231 232 234 235 236 237 238 240 241 242 243 244 245 247 248 249 250 251 252 253 255 257 258 259 260 261 261 262 262 262 264 265 267 268 270 272 273 274 275 277 278 279
219 219 219 219 219 219 220 220 221 221 222 222 223 223 223 224 224 225 226 227 228 228 229 230 230 230 231 232 233 234 235 236 238 239 240 241 242 243 245 246 247 248 249 250 251 252 254 256 257 258 260 261 261 261 262 262 263 264 265 267 268 269 271 272 273 274 275 276 276
219 219 219 219 219 219 220 220 221 222 222 223 223 223 224 224 225 225 226 227 228 228 229 230 230 231 232 232 233 235 236 237 238 239 240 241 243 244 245 246 247 248 249 250 251 252 254 256 257 258 259 260 261 262 262 263 263 264 265 267 268 269 270 271 272 273 274 274 275
219 219 219 219 219 219 219 220 221 222 222 223 223 224 224 225 225 226 226 227 227 228 229 230 231 231 232 233 234 235 236 237 238 239 240 242 243 244 245 246 247 248 249 250 251 253 254 255 256 257 258 260 261 262 262 263 263 264 265 267 268 269 269 270 271 272 273 274 275
219 219 219 219 219 219 220 220 221 222 222 223 223 224 225 225 226 226 227 227 228 229 230 230 231 232 233 234 235 236 236 237 238 239 241 242 243 244 245 246 247 248 249 250 251 253 254 255 256 256 257 259 260 261 262 262 263 264 265 266 267 268 269 270 271 272 273 274 274
219 219 219 219 219 219 220 221 221 222 223 223 224 225 225 226 226 227 228 228 229 230 230 231 232 233 233 234 235 236 237 238 238 239 241 242 243 244 245 246 247 248 249 250 251 252 253 254 255 256 257 258 259 260 261 262 263 263 265 266 267 268 268 269 270 271 272 273 274
219 219 219 219 219 220 220 221 222 223 223 224 224 225 226 227 227 228 229 229 230 231 231 232 233 233 234 234 235 236 237 238 239 239 241 242 243 244 245 246 247 248 249 250 251 252 253 254 255 255 256 257 258 259 260 261 262 263 264 265 266 267 268 269 270 271 272 273 274
219 219 219 220 220 220 221 222 223 223 224 224 225 226 226 227 228 229 229 230 231 232 232 232 233 234 234 235 235 236 237 238 239 240 241 242 243 244 245 245 246 247 248 249 250 252 253 254 255 255 256 257 258 259 260 261 262 263 264 265 266 267 267 268 269 270 271 273 274
219 220 220 220 220 221 221 222 223 224 224 225 225 226 227 228 228 229 230 230 231 232 232 233 234 234 235 235 236 237 238 239 240 241 241 242 243 244 245 246 246 247 248 249 250 251 252 254 255 255 256 257 258 259 260 261 262 263 264 264 265 266 267 267 268 269 271 272 273
220 220 220 220 221 221 222 222 223 224 224 225 225 226 227 228 229 229 230 231 232 232 232 233 234 235 235 236 236 237 239 239 240 241 242 243 244 244 245 246 247 248 249 250 251 251 252 254 255 256 257 258 258 259 260 261 262 263 263 264 264 265 266 266 267 269 270 272 273
220 220 220 221 221 221 222 223 223 224 225 225 226 227 227 228 229 230 230 231 232 232 233 233 234 235 236 236 237 238 239 240 241 242 243 244 244 245 246 247 248 249 250 250 252 252 253 254 255 256 257 258 259 260 261 261 262 262 263 263 264 264 265 266 267 268 270 271 273
220 220 221 221 221 222 222 223 224 224 225 226 226 227 228 229 229 230 231 231 232 233 233 234 234 235 236 237 238 238 240 241 241 242 243 244 245 246 246 247 248 249 250 251 252 253 254 254 255 256 257 258 259 260 261 262 262 262 263 263 263 264 264 265 267 268 270 271 272
220 221 221 221 222 222 223 223 224 225 225 226 227 227 228 229 230 230 231 232 232 233 234 234 235 235 236 237 238 239 240 241 242 243 244 244 245 246 247 248 248 249 250 251 252 253 253 254 255 256 257 258 259 260 261 262 262 262 262 263 263 264 265 266 267 268 270 271 272
221 221 222 222 222 223 223 224 225 225 226 226 227 228 228 229 230 231 231 232 233 233 234 235 235 236 236 237 238 239 240 242 243 243 244 245 246 247 247 248 248 249 250 251 251 252 253 254 255 256 257 258 259 260 261 261 262 262 262 263 263 264 265 266 267 269 270 271 272
222 222 222 223 223 223 224 225 225 226 226 227 227 228 229 229 230 231 232 232 233 233 234 235 236 236 237 238 239 239 241 242 243 244 245 246 246 247 247 248 248 249 250 251 251 252 253 254 255 256 257 258 259 260 260 261 261 262 262 263 264 265 266 267 268 269 270 271 272
222 222 223 223 223 224 224 225 225 226 226 227 227 228 229 229 230 231 231 232 233 234 234 235 236 237 237 238 239 240 241 242 243 244 245 246 246 247 247 248 249 249 250 251 251 252 253 254 255 256 257 258 259 259 260 261 261 262 262 263 264 265 266 268 269 270 270 271 272
222 222 223 223 223 224 224 225 225 226 226 227 227 228 229 229 230 231 231 232 233 234 235 235 236 237 238 238 239 240 241 242 243 244 245 246 246 247 248 248 249 250 251 251 251 251 252 253 255 256 257 258 259 260 260 261 262 262 263 263 264 265 267 268 269 270 271 272 272
222 222 222 223 223 223 224 224 225 225 226 226 227 228 228 229 230 230 231 232 233 234 235 235 236 237 238 239 240 240 241 242 243 244 245 246 246 247 248 248 249 250 251 251 250 251 252 253 254 255 257 258 259 259 260 261 262 263 263 264 265 266 267 268 269 270 271 272 273
221 221 222 223 223 223 224 224 225 225 225 226 227 227 228 229 230 230 231 232 233 234 235 236 237 237 238 239 240 241 242 243 244 244 245 246 246 247 248 249 249 250 250 250 250 250 251 252 253 255 256 258 259 260 261 262 262 263 264 265 266 267 268 268 269 270 272 273 274
221 221 222 222 222 223 223 224 224 225 225 226 226 227 228 229 229 230 231 232 233 234 235 236 237 238 239 240 240 241 242 243 244 245 245 246 246 247 248 249 250 250 250 250 250 250 251 252 253 254 256 258 259 260 261 262 263 264 265 266 267 268 268 269 270 271 272 273 274
221 221 221 221 222 223 223 223 224 224 225 225 226 227 227 228 229 230 231 232 233 234 235 236 237 238 239 240 241 241 242 243 244 245 245 246 246 247 248 249 249 250 249 249 250 250 251 252 253 254 256 257 259 261 262 263 264 265 266 267 268 268 269 270 271 272 273 274 274
221 221 221 221 222 222 223 223 224 224 225 225 226 226 227 228 229 230 230 231 232 233 235 236 237 238 238 239 240 241 242 243 244 245 245 245 246 247 248 248 249 249 249 249 250 250 251 252 253 255 256 257 259 261 262 263 264 265 266 267 268 269 270 271 272 272 273 274 275
221 221 221 221 222 222 223 224 224 224 225 225 226 226 227 228 229 229 230 231 232 234 235 236 236 237 238 240 240 241 242 243 244 244 245 245 246 246 247 248 249 249 249 249 250 251 252 253 254 255 256 258 260 261 262 264 265 266 267 268 269 270 270 271 272 273 273 274 275
221 221 221 221 222 223 223 224 224 225 225 225 226 226 227 228 229 230 231 232 233 234 235 236 236 237 238 239 240 241 242 242 243 244 244 244 245 246 247 247 248 249 249 249 250 251 252 253 254 256 257 258 260 262 263 264 265 267 268 269 269 270 271 272 273 273 274 274 275
220 221 221 222 222 223 224 224 225 225 225 226 226 227 227 228 229 230 231 232 233 234 234 235 236 237 238 239 240 240 241 242 242 243 243 244 245 245 246 247 248 249 249 249 250 252 253 254 255 256 258 259 261 263 264 265 266 267 268 269 270 271 272 273 273 274 274 274 275
220 221 221 222 223 224 224 225 225 225 226 226 227 227 228 229 229 230 231 233 234 234 235 236 237 237 238 239 239 240 240 241 241 242 243 243 244 245 246 247 248 249 249 250 251 252 254 255 256 257 259 260 262 263 265 266 267 268 269 270 271 272 273 273 274 274 274 275 275
220 221 222 223 224 224 225 225 226 226 226 227 227 228 229 230 230 231 232 233 234 235 236 237 237 238 238 239 239 240 240 240 241 241 242 243 243 244 246 247 249 249 250 251 252 254 255 256 257 258 260 262 263 264 265 266 267 268 269 270 271 272 273 273 274 274 274 274 275
221 222 222 223 224 225 225 226 226 227 227 228 228 229 230 231 232 232 233 234 235 235 236 237 237 238 238 239 239 240 240 240 240 241 242 242 243 244 246 248 249 250 251 252 253 255 256 257 258 260 261 263 264 265 266 267 268 269 270 271 272 272 273 273 274 274 274 274 274
222 222 223 224 224 225 226 226 227 227 228 229 229 230 231 232 233 234 234 235 235 236 236 237 237 238 238 239 240 240 241 241 241 242 242 243 244 245 247 248 250 251 252 253 254 256 257 258 260 261 263 265 265 266 267 268 269 270 271 271 272 273 273 273 274 274 274 274 274
222 223 223 224 225 225 226 227 227 228 229 230 231 231 232 233 234 235 235 236 236 237 237 238 238 239 239 240 240 241 241 242 242 243 244 245 246 247 248 250 252 253 254 254 256 257 258 259 261 262 264 265 266 267 268 269 270 270 271 272 273 273 273 273 274 274 274 274 274
223 223 224 224 225 226 226 227 228 229 230 230 231 232 233 234 235 236 237 237 237 238 238 239 239 239 240 240 241 242 243 244 244 245 246 247 248 249 250 252 254 255 256 256 257 258 260 261 262 263 265 266 267 267 268 269 270 271 272 272 273 273 273 273 273 274 274 274 273
223 223 224 225 225 226 227 228 229 230 230 231 232 233 234 235 236 236 237 238 238 239 239 239 240 240 241 241 242 243 244 245 246 247 248 249 250 251 253 254 256 257 258 258 259 260 261 262 263 264 265 267 267 268 269 270 271 271 272 272 273 273 273 273 273 273 274 274 274
223 224 224 225 226 227 227 228 229 230 231 232 233 234 235 235 236 237 238 238 239 239 240 240 240 241 241 242 243 244 245 246 248 249 250 251 252 254 255 256 258 259 260 261 261 261 262 263 264 265 266 267 268 269 270 270 271 271 272 272 272 273 273 273 273 273 273 273 274